sat.trackr.live / text

‹ back to catalog

STARLINK-4616

NORAD 53734 · 2022-107AL

PAYLOAD ACTIVE UNKNOWN

§ Identity

Operator
Country
US
Launch date
2022-09-05
Launch site
AFETR
Launch vehicle
Mass (kg)
RCS (m²)

Purposes: comms

External: N2YO · Heavens-Above · Gunter

§ Orbital elements

Epoch: 2026-05-24T17:46:06.735936Z

Period
95.44 min
Inclination
53.2151°
Eccentricity
0.0001146
Mean motion
15.08840448 rev/d
Perigee alt
538.9 km
Apogee alt
540.5 km
Semi-major
6,917.9 km
B*
5.0923e-5
RAAN
272.7883°
Arg perigee
88.8379°
Mean anomaly
271.2745°
Rev number
20,606

§ Raw data

STARLINK-46161 53734U 22107AL  26144.74035574  .00000523  00000+0  50923-4 0  99982 53734  53.2151 272.7883 0001146  88.8379 271.2745 15.08840448206067

JSON: /api/v1/satellites/53734 · /tle

For live sub-satellite position, see the globe view (requires WebGL).

§ Visibility from observer

Set your observer location to see the next 7 days of passes ≥ 10°. The values pass through the URL so the page stays shareable.

No JS? Fill the form by hand. The geolocation button needs JavaScript.